カタログに戻る

STARLINK-11748

運用中通信VLEO
NORAD 64373·PAYLOAD·🇺🇸 United States

打ち上げ Jun 13, 2025 から Cape Canaveral Space Force Station

Loading…

次のパス (今後24時間)

TLE

最新Source: CelesTrak SupGP

元期: Sep 14, 2026, 22:35 UTC

1 64373C 25127D   26257.94145833  .00011810  00000+0  91662-4 0  2574
2 64373  43.0010  24.2343 0001796 269.2416  24.7477 15.70848937    18

AllMySatでSTARLINK-11748をリアルタイム追跡

Download on the App Store